Vertical_Velocity
-1 -7 -2 -2 -1 -0 -1 -1 -0 -2 -0 2 -1 -1 -6 -4 2 -0 -1 1 0 1 2 3 2 3 2 3 4 4 2 1 -3 -1 1 1 0 -2 -3 -2 0 -1 -1 -2
-6 -2 -1 -1 -0 -1 -1 -0 -2 -3 -0 0 -1 -8 -4 -0 -4 -3 1 -0 -2 -0 -1 0 -1 -3 -4 -0 -1 -2 -2 -3 -2 0 2 2 1 2 -0 -0 -1 -0 2 0
-3 -4 0 -2 1 -1 -0 -1 -1 1 -2 -1 -0 -6 -2 -1 1 1 4 4 3 -1 -3 -4 -2 0 -0 -1 -0 1 1 1 0 0 1 0 1 1 -0 -1 0 1 1 2
-2 1 -1 0 -0 -4 1 -2 -1 -0 -4 -4 -4 -10 -3 -1 -1 0 0 -1 -2 -4 -2 -2 -3 -2 -1 0 2 5 2 -0 0 -0 -1 1 1 -1 2 2 -1 -1 -1 -0
-13 0 1 1 -4 -1 -4 -1 -0 -0 -1 -3 -1 -6 -16 -0 -1 -2 -2 -1 -1 -1 -1 -2 -1 2 1 -1 -3 -1 1 1 -0 -3 -4 -2 -3 -1 -3 -1 0 1 1 2
-1 1 -1 -4 1 -0 -1 -3 -2 -1 -1 -4 -4 -6 -10 -3 -7 -0 0 0 0 -1 -0 1 -1 -1 0 1 -0 -3 -4 -4 -1 -1 -1 -2 -1 -0 -2 -0 -0 1 1 2
-1 -1 0 -1 -3 -2 -2 -4 -4 -8 -5 -8 0 -1 -15 -3 -2 -2 -4 -2 -1 0 -0 -2 -1 -1 -2 -2 -0 -0 1 -1 1 -0 -3 -2 -3 -3 -3 -1 1 1 2 2
-3 -9 -2 -2 -6 -10 -2 -6 -7 -5 -2 -5 -0 -5 -22 -3 -1 0 -0 2 1 -1 0 -2 -1 2 3 1 -1 -0 -0 0 -2 -0 1 1 2 0 2 2 1 1 -0 -0
-1 -6 2 -0 0 -7 -4 -1 -6 -2 -1 -3 -5 -9 -8 -0 -1 1 2 2 -1 -1 -1 -1 -1 -3 -2 -3 -4 -2 -3 -2 -2 -1 -0 -1 1 -3 -1 2 1 2 4 4
-3 -3 -0 0 0 2 -5 -5 -9 -3 -3 -1 -4 -1 -8 -1 -2 0 2 -1 -1 -0 -1 -4 -6 -4 -2 -0 0 1 1 3 2 -2 -0 -0 3 2 1 1 0 3 4 3
-1 -3 -4 -1 -1 -7 2 1 1 -6 -4 -4 -1 -12 -6 -4 -4 -3 -2 -3 -4 -3 -3 -3 0 0 0 -1 -4 -1 0 -1 -2 -1 -1 0 -2 0 -1 -0 1 2 4 4
-4 -2 -0 -15 -3 -1 -0 -4 -5 -0 -5 -1 -2 -33 -1 -2 -2 -2 -2 -3 -4 -2 -2 1 1 1 -0 -3 -2 -1 1 -2 1 1 0 1 -3 -2 -0 -0 1 1 3 2
-3 -1 -1 -2 -5 -3 1 -1 -1 -0 -1 -8 2 -18 -0 0 0 -1 -2 -2 0 2 3 1 4 -4 -2 2 2 -0 1 2 4 5 -2 -4 0 0 -1 1 0 2 2 1
5 1 -4 -12 -10 -6 1 1 0 1 8 -10 -16 -11 -1 -1 -1 0 -0 2 -0 -3 -4 -2 0 -1 2 1 1 0 1 2 2 -3 -2 -1 1 -0 2 2 1 2 1 4
3 1 7 -6 -3 3 -2 -1 -1 4 -14 7 -29 -2 -9 -4 -4 -4 -2 2 0 -0 3 -3 3 3 2 1 2 0 0 -1 -5 -3 -1 -2 0 2 1 1 2 2 1 -2
-1 -2 1 -5 -2 3 2 -2 1 -0 -2 3 4 -12 -1 2 5 1 -0 0 -1 3 -2 0 2 -2 -2 0 0 1 -0 -1 -1 -3 -4 -3 -0 0 -1 2 0 0 -0 2
2 1 -0 -2 0 -0 5 -9 -3 -3 -0 1 4 -26 -0 1 0 -6 -3 3 -17 -15 2 -3 -0 1 1 1 -0 -2 -2 -3 -3 -4 -4 -1 1 0 1 0 1 4 -3 2
0 1 1 -1 -0 3 -5 -0 -1 -0 -4 -1 3 -3 -2 -5 -8 1 -0 -3 1 1 1 1 1 2 1 -2 -2 -0 -1 -2 0 -1 -0 1 -2 1 3 3 1 2 0 -3
1 1 0 1 -1 -6 -9 -2 -0 -3 -8 -1 -1 -2 -4 1 4 -5 -9 3 -0 -0 4 6 4 1 -1 -1 -2 -1 0 -1 -2 -1 -1 -0 -1 1 2 2 4 5 2 0
3 2 6 0 2 -1 0 -2 2 -1 -9 -1 1 -1 -0 1 1 -9 3 -1 -1 2 4 -1 0 -0 -2 -0 2 2 -2 -1 1 1 2 3 -1 -1 0 4 1 2 -4 2
1 1 -1 -1 0 -4 -0 -1 1 -3 1 -1 7 3 3 -2 -7 -1 -3 0 3 2 -2 -3 0 1 2 0 -4 -3 -2 -1 -1 -0 -0 -2 -1 4 2 -1 1 -0 1 4
1 2 0 1 5 0 1 -4 -1 5 -11 5 2 4 4 2 -0 0 1 0 -0 -2 -3 2 2 0 -1 -2 -1 -3 -2 -3 -0 -1 -3 -2 -0 2 1 -2 1 3 2 4
-2 -9 -4 -5 -2 -3 1 -6 -3 5 -3 -17 4 -5 13 6 -0 0 1 2 3 2 -1 0 0 -0 -2 -4 -4 -1 -0 1 -3 -2 -1 -1 -2 1 -1 0 2 0 2 3
-3 -0 -0 1 -5 -4 -1 -6 2 1 5 -2 -4 -13 -1 3 8 1 0 0 0 1 0 1 2 0 1 -2 -1 -1 -2 -8 -4 -1 2 -0 -1 -1 -1 2 1 1 3 3
-6 1 -1 -4 -5 -3 -10 2 2 -5 1 -3 3 1 -0 4 2 4 2 -2 -3 0 0 0 -3 -1 1 -1 -3 -1 -2 -4 -4 -1 -1 -3 -2 -2 -1 1 -1 0 -0 -1
-3 -5 3 -9 -7 11 -6 1 -0 -1 0 -1 -3 -3 -4 0 -2 0 7 8 1 -0 4 -0 0 -0 -1 -4 -1 -2 0 -0 -2 -1 -1 -3 -6 -3 -2 1 -1 4 3 3
Height
1526 1532 1536 1531 1530 1529 1531 1532 1535 1532 1530 1531 1528 1525 1513 1509 1510 1508 1507 1508 1511 1512 1513 1514 1516 1517 1518 1521 1523 1525 1526 1527 1528 1529 1529 1529 1529 1529 1528 1528 1527 1527 1525 1525
1529 1532 1527 1528 1530 1531 1533 1535 1538 1533 1532 1533 1529 1517 1504 1502 1500 1498 1501 1507 1510 1511 1513 1513 1514 1516 1517 1519 1520 1522 1524 1525 1526 1527 1527 1527 1527 1526 1526 1525 1525 1525 1524 1523
1530 1524 1524 1525 1529 1532 1535 1538 1538 1540 1537 1533 1535 1521 1504 1500 1498 1496 1500 1505 1508 1508 1509 1509 1509 1509 1511 1513 1515 1517 1519 1520 1522 1524 1525 1525 1526 1525 1525 1524 1523 1523 1523 1522
1525 1523 1524 1526 1527 1529 1533 1531 1533 1536 1546 1554 1540 1542 1511 1503 1500 1498 1498 1500 1501 1502 1504 1505 1505 1506 1506 1508 1512 1515 1516 1518 1519 1521 1523 1524 1525 1524 1523 1523 1523 1523 1522 1521
1524 1525 1525 1528 1527 1527 1534 1534 1538 1541 1553 1553 1543 1557 1513 1506 1502 1498 1494 1494 1496 1498 1500 1501 1501 1502 1504 1506 1509 1512 1514 1515 1516 1516 1518 1519 1520 1521 1521 1520 1520 1519 1519 1518
1521 1521 1522 1522 1526 1527 1531 1537 1544 1552 1559 1565 1531 1536 1516 1505 1492 1487 1486 1488 1491 1495 1497 1499 1500 1500 1501 1503 1506 1508 1509 1510 1511 1512 1514 1515 1517 1517 1517 1517 1517 1517 1515 1515
1524 1522 1520 1520 1527 1530 1531 1539 1558 1561 1563 1541 1534 1542 1511 1488 1483 1481 1481 1484 1489 1492 1495 1496 1496 1497 1499 1501 1503 1506 1507 1508 1508 1509 1511 1512 1513 1512 1512 1513 1513 1513 1513 1513
1532 1532 1519 1515 1514 1522 1533 1533 1545 1545 1547 1533 1531 1527 1494 1479 1476 1477 1479 1482 1488 1490 1492 1494 1495 1497 1498 1501 1503 1505 1507 1508 1508 1509 1510 1510 1510 1510 1509 1509 1509 1508 1507 1509
1524 1519 1508 1510 1512 1514 1528 1534 1525 1530 1536 1551 1520 1501 1482 1477 1476 1474 1475 1479 1484 1487 1489 1491 1494 1497 1498 1499 1500 1500 1501 1501 1502 1503 1503 1503 1503 1503 1504 1506 1506 1506 1505 1503
1503 1515 1511 1509 1509 1513 1517 1516 1531 1538 1537 1535 1515 1506 1489 1479 1476 1475 1475 1475 1479 1483 1486 1488 1490 1492 1492 1494 1496 1497 1497 1497 1498 1500 1500 1500 1499 1499 1499 1500 1500 1500 1499 1499
1499 1508 1518 1516 1510 1505 1516 1517 1516 1516 1520 1526 1521 1482 1468 1464 1464 1468 1468 1471 1474 1476 1478 1479 1483 1486 1488 1490 1492 1494 1494 1494 1495 1494 1495 1495 1495 1496 1496 1497 1498 1497 1495 1495
1494 1499 1513 1506 1498 1497 1496 1491 1496 1503 1503 1509 1516 1449 1453 1455 1456 1458 1461 1464 1470 1472 1475 1476 1478 1481 1483 1485 1487 1487 1487 1487 1487 1488 1487 1486 1487 1491 1492 1492 1492 1493 1493 1491
1490 1497 1504 1494 1502 1498 1497 1491 1486 1486 1491 1480 1500 1460 1456 1456 1458 1457 1459 1461 1465 1468 1472 1476 1478 1478 1479 1481 1482 1483 1484 1484 1483 1482 1482 1483 1484 1485 1487 1487 1488 1488 1488 1488
1483 1485 1485 1470 1470 1480 1490 1485 1479 1478 1477 1468 1452 1456 1459 1457 1457 1456 1458 1460 1463 1466 1468 1471 1473 1474 1475 1476 1478 1479 1479 1479 1478 1478 1478 1478 1481 1483 1483 1482 1483 1484 1484 1485
1487 1474 1478 1465 1462 1468 1469 1471 1469 1471 1459 1466 1436 1456 1445 1454 1453 1454 1457 1460 1462 1464 1465 1466 1467 1467 1470 1472 1472 1473 1473 1473 1473 1474 1473 1475 1478 1480 1479 1480 1479 1481 1479 1480
1490 1482 1479 1460 1458 1461 1460 1453 1453 1454 1452 1451 1445 1433 1445 1444 1448 1454 1455 1457 1459 1460 1461 1463 1463 1465 1466 1467 1468 1467 1467 1468 1468 1469 1469 1472 1473 1475 1475 1475 1476 1477 1478 1477
1492 1486 1481 1470 1471 1465 1455 1440 1443 1444 1445 1446 1445 1434 1445 1449 1451 1451 1451 1451 1456 1455 1455 1456 1458 1459 1461 1461 1461 1463 1464 1464 1465 1467 1468 1470 1470 1470 1469 1471 1473 1474 1474 1475
1487 1485 1480 1472 1473 1460 1439 1443 1444 1445 1437 1436 1437 1438 1442 1439 1440 1442 1445 1446 1445 1446 1449 1451 1452 1453 1454 1456 1459 1460 1459 1460 1461 1463 1465 1464 1466 1466 1468 1468 1466 1470 1470 1472
1481 1484 1475 1468 1462 1449 1443 1441 1443 1440 1436 1433 1434 1433 1430 1434 1435 1435 1438 1437 1439 1442 1445 1447 1448 1449 1450 1452 1454 1456 1456 1456 1458 1459 1461 1461 1462 1462 1463 1464 1463 1465 1467 1469
1473 1477 1476 1467 1461 1455 1447 1443 1442 1440 1445 1434 1430 1429 1431 1433 1440 1431 1431 1432 1434 1437 1440 1442 1444 1445 1447 1449 1451 1452 1453 1454 1454 1455 1456 1456 1457 1458 1459 1459 1460 1461 1462 1467
1470 1470 1468 1464 1459 1454 1451 1446 1444 1453 1452 1443 1437 1429 1429 1432 1428 1427 1428 1429 1431 1434 1437 1440 1443 1444 1446 1447 1449 1451 1452 1452 1451 1451 1452 1454 1455 1454 1455 1454 1456 1458 1460 1464
1474 1469 1463 1457 1454 1449 1454 1447 1452 1457 1448 1446 1438 1434 1431 1428 1426 1424 1425 1426 1427 1430 1434 1438 1441 1443 1444 1446 1448 1448 1449 1448 1449 1447 1449 1451 1452 1452 1451 1451 1453 1455 1458 1461
1472 1464 1464 1465 1455 1448 1448 1452 1451 1450 1445 1442 1439 1436 1432 1429 1425 1424 1425 1425 1428 1430 1433 1436 1439 1441 1442 1444 1446 1446 1446 1446 1445 1446 1447 1447 1448 1448 1448 1450 1452 1455 1457 1459
1462 1460 1461 1458 1449 1446 1445 1444 1442 1440 1437 1434 1434 1434 1431 1428 1427 1423 1424 1426 1428 1430 1432 1434 1436 1439 1441 1442 1444 1443 1442 1445 1446 1446 1445 1444 1446 1447 1448 1450 1452 1454 1456 1457
1461 1461 1457 1454 1446 1444 1441 1440 1439 1434 1432 1431 1430 1429 1426 1424 1423 1423 1422 1423 1426 1428 1431 1434 1436 1437 1441 1440 1443 1442 1443 1444 1445 1445 1444 1444 1446 1448 1449 1451 1453 1455 1456 1458
1454 1455 1455 1446 1441 1441 1437 1437 1433 1429 1427 1425 1424 1422 1419 1420 1419 1420 1419 1418 1420 1422 1426 1428 1432 1436 1438 1439 1441 1442 1444 1444 1445 1445 1444 1445 1447 1450 1451 1453 1455 1456 1457 1458